This demonstration page uses our WeatherBlox Daily Observations layout. Learn more.

Hourly Observations for April 13, 2018

Temp ( °F °C ) Dew Point ( °F °C ) Humidity (%) Winds ( mph kmh ) Pressure ( in mb ) Visibility ( mi km ) Precip ( " mm )
12:15 am 00:15 Clear 53 11.7 43 6 68 68 NE 18 30 29.29 992 10 16.0934 0 0
12:35 am 00:35 Clear 53 11.4 43 6 70 70 NNE 21 33 29.32 993 10 16.0934 0 0
12:55 am 00:55 Clear 52 11.1 42 5.7 70 70 NE 24 39 29.32 993 10 16.0934 0 0
1:15 am 01:15 Clear 52 11 42 5.6 70 70 NE 24 39 29.32 993 10 16.0934 0 0
1:35 am 01:35 Clear 51 10.6 42 5.6 71 71 NNE 23 37 29.32 993 10 16.0934 0 0
1:55 am 01:55 Clear 50 10.1 42 5.6 74 74 NNE 23 37 29.32 993 10 16.0934 0 0
2:15 am 02:15 Clear 49 9.7 42 5.6 76 76 NNE 23 37 29.29 992 10 16.0934 0 0
2:35 am 02:35 Clear 49 9.5 42 5.6 77 77 NNE 20 31 29.29 992 10 16.0934 0 0
2:55 am 02:55 Clear 49 9.3 42 5.7 78 78 NNE 17 28 29.32 993 10 16.0934 0 0
3:15 am 03:15 Clear 48 8.8 42 5.5 80 80 N 16 26 29.35 994 10 16.0934 0 0
3:35 am 03:35 Clear 47 8.3 42 5.5 83 83 N 17 28 29.32 993 10 16.0934 0 0
3:55 am 03:55 Clear 46 8 42 5.5 84 84 NNE 20 31 29.32 993 10 16.0934 0 0
4:15 am 04:15 Clear 46 7.5 42 5.5 87 87 NNE 18 30 29.32 993 10 16.0934 0 0
4:35 am 04:35 Clear 45 7 42 5.3 89 89 N 16 26 29.32 993 10 16.0934 0 0
4:55 am 04:55 Mostly Cloudy 45 7.3 42 5.8 90 90 N 20 31 29.35 994 10 16.0934 0 0
5:15 am 05:15 Cloudy 46 7.8 43 6 89 89 N 17 28 29.38 995 10 16.0934 0 0
5:35 am 05:35 Cloudy 46 8 43 6 87 87 N 18 30 29.38 995 10 16.0934 0 0
5:55 am 05:55 Cloudy 46 8 43 6 87 87 N 17 28 29.38 995 10 16.0934 0 0
6:15 am 06:15 Cloudy 46 7.8 43 5.9 88 88 N 22 35 29.38 995 10 16.0934 0 0
6:35 am 06:35 Cloudy 46 7.5 42 5.6 88 88 N 21 33 29.38 995 7 11.26538 0 0
6:55 am 06:55 Cloudy 45 7.3 42 5.5 88 88 N 15 24 29.41 996 7 11.26538 0 0
7:15 am 07:15 Cloudy 45 7 41 5.1 88 88 N 22 35 29.41 996 7 11.26538 0 0
7:35 am 07:35 Cloudy 44 6.6 41 5.1 90 90 N 23 37 29.44 997 7 11.26538 0 0
7:55 am 07:55 Cloudy with Mist and Fog 43 6.1 41 5.2 94 94 N 20 31 29.44 997 3 4.82802 0 0
8:15 am 08:15 Cloudy with Mist and Fog 42 5.7 41 5.2 97 97 N 21 33 29.44 997 2.5 4.02335 0 0
8:35 am 08:35 Cloudy with Mist and Fog 42 5.3 41 5 98 98 N 18 30 29.44 997 1.75 2.816345 0 0
8:55 am 08:55 Cloudy with Mist and Fog 41 5.1 41 5 99 99 N 20 31 29.44 997 1.75 2.816345 0 0
9:15 am 09:15 Cloudy with Mist and Fog 41 5.1 41 5 99 99 N 23 37 29.44 997 2.5 4.02335 0 0
9:35 am 09:35 Cloudy with Mist and Fog 41 4.9 40 4.7 99 99 N 21 33 29.44 997 3 4.82802 0 0
9:55 am 09:55 Cloudy with Mist and Fog 40 4.6 40 4.5 99 99 N 18 30 29.44 997 2.5 4.02335 0 0
10:15 am 10:15 Cloudy with Mist and Fog 40 4.7 40 4.6 99 99 N 17 28 29.47 998 3 4.82802 0.01 0.254
10:35 am 10:35 Cloudy with Mist and Fog 41 4.8 40 4.7 99 99 NNW 17 28 29.47 998 2 3.21868 0.01 0.254
10:55 am 10:55 Cloudy with Light Rain 40 4.7 40 4.6 99 99 N 21 33 29.47 998 2.5 4.02335 0.01 0.254
11:15 am 11:15 Cloudy with Mist and Fog 40 4.6 40 4.6 100 100 N 23 37 29.44 997 2.5 4.02335 0 0
11:35 am 11:35 Cloudy with Mist and Fog 40 4.5 40 4.5 100 100 N 23 37 29.44 997 2.5 4.02335 0 0
11:55 am 11:55 Cloudy with Mist and Fog 40 4.7 40 4.6 99 99 N 24 39 29.44 997 3 4.82802 0 0
12:15 pm 12:15 Cloudy with Mist and Fog 40 4.6 40 4.4 99 99 N 25 41 29.44 997 3 4.82802 0 0
12:35 pm 12:35 Cloudy 40 4.6 40 4.3 98 98 N 23 37 29.47 998 7 11.26538 0 0
12:55 pm 12:55 Cloudy with Mist and Fog 40 4.5 39 4.1 97 97 N 23 37 29.47 998 4 6.43736 0 0
1:15 pm 13:15 Cloudy with Mist and Fog 40 4.5 39 4.1 97 97 N 24 39 29.47 998 2 3.21868 0 0
1:35 pm 13:35 Cloudy with Mist and Fog 39 4.1 39 4 99 99 N 18 30 29.47 998 2 3.21868 0 0
1:55 pm 13:55 Cloudy with Mist and Fog 39 4.1 39 3.9 99 99 N 20 31 29.47 998 2.5 4.02335 0 0
2:15 pm 14:15 Cloudy with Mist and Fog 39 4 39 3.7 98 98 N 15 24 29.53 1000 2.5 4.02335 0 0
2:35 pm 14:35 Cloudy with Light Rain 39 3.7 38 3.5 99 99 N 18 30 29.53 1000 1.75 2.816345 0 0
2:55 pm 14:55 Cloudy with Light Rain 39 3.7 38 3.6 99 99 N 22 35 29.53 1000 2 3.21868 0.01 0.254
3:15 pm 15:15 Cloudy with Mist and Fog 38 3.5 38 3.4 99 99 N 18 30 29.53 1000 2 3.21868 0 0
3:35 pm 15:35 Cloudy with Mist and Fog 38 3.4 38 3.2 99 99 N 22 35 29.53 1000 2 3.21868 0 0
3:55 pm 15:55 Cloudy with Light Rain 38 3.1 37 3 99 99 N 20 31 29.56 1001 2 3.21868 0 0
4:15 pm 16:15 Cloudy with Mist and Fog 37 3 37 2.7 98 98 N 23 37 29.56 1001 3 4.82802 0 0
4:35 pm 16:35 Cloudy with Light Rain 37 2.5 36 2 97 97 N 23 37 29.56 1001 3 4.82802 0 0
4:55 pm 16:55 Cloudy with Mist and Fog 36 2.2 35 1.8 97 97 N 22 35 29.56 1001 5 8.0467 0 0
5:15 pm 17:15 Cloudy with Mist and Fog 35 1.7 34 1.2 97 97 N 25 41 29.59 1002 5 8.0467 0 0
5:35 pm 17:35 Cloudy with Light Drizzle 34 1.2 33 0.7 97 97 N 21 33 29.62 1003 4 6.43736 0 0
5:55 pm 17:55 Cloudy with Light Drizzle 34 1 33 0.5 97 97 NNW 23 37 29.65 1004 2.5 4.02335 0 0
6:15 pm 18:15 Cloudy with Light Rain 33 0.5 32 0.1 97 97 NNW 21 33 29.68 1005 1.75 2.816345 0 0
6:35 pm 18:35 Cloudy with Light Rain 32 0.2 32 0 99 99 NNW 23 37 29.68 1005 1.25 2.011675 0.01 0.254
6:55 pm 18:55 Cloudy with Light Wintry Mix 32 0 32 0 100 100 NNW 17 28 29.71 1006 1.25 2.011675 0.02 0.508
7:15 pm 19:15 Cloudy with Light Wintry Mix 32 0 32 0 100 100 N 24 39 29.71 1006 1.5 2.41401 0 0
7:35 pm 19:35 Cloudy with Light Wintry Mix 32 0 32 0 100 100 NNW 20 31 29.74 1007 1.5 2.41401 0.01 0.254
7:55 pm 19:55 Windy with Snow Likely 32 0 32 -0.2 99 99 NNW 20 31 29.74 1007 1.75 2.816345 0.02 0.508
8:15 pm 20:15 Windy with Snow Likely 31 -0.4 31 -0.5 99 99 NNW 22 35 29.74 1007 2 3.21868 0 0
8:35 pm 20:35 Windy with Snow Likely 31 -0.5 31 -0.7 99 99 NNW 23 37 29.77 1008 1.75 2.816345 0.01 0.254
8:55 pm 20:55 Windy with Snow Likely 31 -0.8 30 -1 99 99 NNW 25 41 29.8 1009 1.5 2.41401 0.01 0.254
9:15 pm 21:15 Windy with Snow Likely 30 -1.2 29 -1.4 99 99 NNW 29 46 29.8 1009 1.5 2.41401 0 0
9:35 pm 21:35 Windy with Snow Likely 29 -1.9 28 -2.1 99 99 NNW 26 43 29.8 1009 2.5 4.02335 0.01 0.254
9:55 pm 21:55 Windy with Snow Likely 28 -2 28 -2.5 96 96 NNW 25 41 29.83 1010 4 6.43736 0.01 0.254
10:15 pm 22:15 Windy with Snow Likely 28 -2.2 27 -2.8 96 96 NNW 30 48 29.83 1010 4 6.43736 0 0
10:35 pm 22:35 Windy with Snow Likely 28 -2.5 27 -3 96 96 NNW 26 43 29.83 1010 1.5 2.41401 0 0
10:55 pm 22:55 Windy with Snow Likely 28 -2.5 27 -3 96 96 NNW 29 46 29.83 1010 1.25 2.011675 0 0
11:15 pm 23:15 Windy with Snow Likely 27 -2.6 26 -3.1 96 96 NNW 32 52 29.83 1010 1.5 2.41401 0 0
11:35 pm 23:35 Cloudy with Snow 27 -2.7 26 -3.4 95 95 NNW 33 54 29.83 1010 1 1.60934 0 0
11:55 pm 23:55 Cloudy with Snow 26 -3.1 26 -3.6 96 96 NNW 32 52 29.85 1011 0.75 1.207005 0 0

Powered by AerisWeather